QPF
0.09 0.12 0.16 0.10 0.08 0.06 0.06 0.05 0.05 0.05 0.04 0.04 0.05 0.06 0.07 0.07 0.10 0.12 0.14 0.11 0.09 0.08 0.10 0.14 0.19 0.18 0.15 0.12 0.07 0.06 0.06 0.07 0.07 0.06 0.05 0.05 0.07 0.06 0.07 0.07 0.06 0.05 0.10
0.09 0.09 0.13 0.10 0.06 0.05 0.04 0.04 0.04 0.05 0.05 0.04 0.05 0.05 0.05 0.05 0.06 0.08 0.09 0.09 0.10 0.09 0.12 0.16 0.15 0.13 0.11 0.09 0.06 0.08 0.09 0.08 0.06 0.05 0.05 0.04 0.05 0.05 0.06 0.04 0.03 0.05 0.12
0.06 0.06 0.07 0.07 0.06 0.05 0.03 0.04 0.05 0.05 0.04 0.04 0.04 0.04 0.04 0.04 0.05 0.06 0.07 0.10 0.10 0.10 0.13 0.14 0.11 0.09 0.08 0.08 0.08 0.08 0.09 0.09 0.07 0.06 0.06 0.04 0.04 0.05 0.06 0.06 0.04 0.04 0.07
0.04 0.05 0.07 0.06 0.05 0.05 0.04 0.04 0.05 0.04 0.02 0.02 0.03 0.03 0.03 0.03 0.03 0.06 0.08 0.08 0.07 0.08 0.10 0.11 0.09 0.07 0.07 0.07 0.06 0.05 0.06 0.08 0.08 0.07 0.04 0.02 0.03 0.04 0.05 0.06 0.05 0.05 0.05
0.03 0.03 0.06 0.05 0.04 0.05 0.05 0.05 0.06 0.05 0.03 0.03 0.03 0.03 0.03 0.03 0.03 0.05 0.08 0.09 0.08 0.07 0.08 0.09 0.07 0.07 0.06 0.05 0.04 0.04 0.04 0.05 0.05 0.03 0.02 0.01 0.02 0.04 0.04 0.03 0.03 0.05 0.04
0.01 0.03 0.05 0.04 0.04 0.04 0.04 0.04 0.04 0.03 0.03 0.03 0.03 0.03 0.03 0.04 0.04 0.07 0.09 0.10 0.11 0.09 0.09 0.08 0.06 0.05 0.05 0.05 0.05 0.05 0.04 0.04 0.03 0.02 0.02 0.01 0.02 0.05 0.04 0.03 0.03 0.04 0.04
0.01 0.03 0.05 0.05 0.05 0.05 0.05 0.06 0.06 0.04 0.02 0.02 0.03 0.03 0.04 0.04 0.06 0.08 0.09 0.10 0.10 0.09 0.08 0.07 0.06 0.04 0.04 0.06 0.06 0.05 0.04 0.03 0.03 0.03 0.03 0.02 0.04 0.05 0.04 0.04 0.04 0.03 0.03
0.01 0.02 0.03 0.04 0.06 0.05 0.04 0.05 0.07 0.06 0.04 0.03 0.03 0.04 0.04 0.05 0.06 0.07 0.08 0.10 0.09 0.07 0.06 0.06 0.06 0.05 0.04 0.04 0.06 0.05 0.04 0.03 0.02 0.03 0.03 0.02 0.04 0.04 0.05 0.05 0.05 0.03 0.03
0.01 0.01 0.02 0.03 0.05 0.06 0.07 0.07 0.07 0.07 0.05 0.04 0.04 0.04 0.04 0.04 0.05 0.05 0.05 0.06 0.06 0.05 0.05 0.05 0.05 0.04 0.04 0.04 0.04 0.04 0.04 0.03 0.03 0.04 0.02 0.02 0.02 0.03 0.03 0.04 0.03 0.02 0.03
0.01 0.01 0.01 0.01 0.02 0.04 0.07 0.10 0.10 0.10 0.09 0.08 0.08 0.07 0.06 0.05 0.05 0.04 0.04 0.05 0.06 0.05 0.06 0.06 0.06 0.05 0.05 0.05 0.05 0.05 0.04 0.04 0.03 0.02 0.01 0.01 0.02 0.02 0.03 0.04 0.03 0.02 0.02
0.01 0.00 0.00 0.00 0.01 0.03 0.05 0.08 0.10 0.11 0.12 0.11 0.11 0.11 0.08 0.05 0.04 0.04 0.06 0.08 0.07 0.07 0.07 0.08 0.08 0.07 0.07 0.06 0.06 0.06 0.04 0.02 0.02 0.01 0.01 0.02 0.02 0.02 0.04 0.04 0.05 0.04 0.03
0.00 0.00 0.00 0.00 0.01 0.02 0.04 0.06 0.07 0.08 0.11 0.14 0.16 0.15 0.10 0.08 0.06 0.06 0.09 0.10 0.10 0.09 0.09 0.08 0.08 0.07 0.04 0.05 0.07 0.06 0.04 0.03 0.02 0.02 0.02 0.02 0.03 0.04 0.06 0.06 0.07 0.08 0.04
0.00 0.00 0.00 0.01 0.01 0.01 0.02 0.03 0.05 0.07 0.10 0.16 0.17 0.13 0.12 0.11 0.09 0.07 0.07 0.08 0.10 0.09 0.07 0.06 0.05 0.04 0.04 0.06 0.06 0.05 0.04 0.03 0.03 0.04 0.03 0.04 0.05 0.06 0.07 0.07 0.09 0.10 0.06
0.01 0.01 0.01 0.01 0.01 0.01 0.01 0.02 0.04 0.06 0.08 0.12 0.12 0.09 0.09 0.10 0.08 0.06 0.05 0.10 0.10 0.07 0.06 0.04 0.03 0.03 0.05 0.06 0.05 0.05 0.04 0.03 0.03 0.05 0.04 0.05 0.06 0.07 0.08 0.08 0.09 0.07 0.07
0.01 0.01 0.02 0.01 0.02 0.02 0.02 0.03 0.03 0.06 0.08 0.10 0.09 0.08 0.07 0.08 0.09 0.06 0.07 0.13 0.12 0.08 0.05 0.04 0.03 0.03 0.03 0.03 0.03 0.03 0.04 0.03 0.04 0.04 0.04 0.05 0.07 0.08 0.08 0.10 0.10 0.08 0.08
0.00 0.00 0.01 0.02 0.02 0.02 0.02 0.02 0.03 0.04 0.05 0.07 0.08 0.08 0.08 0.08 0.07 0.06 0.09 0.15 0.11 0.06 0.04 0.03 0.04 0.04 0.04 0.04 0.03 0.03 0.04 0.03 0.04 0.05 0.05 0.04 0.07 0.08 0.10 0.12 0.12 0.11 0.10
0.00 0.00 0.01 0.01 0.01 0.02 0.02 0.02 0.02 0.02 0.03 0.05 0.08 0.07 0.08 0.09 0.09 0.08 0.11 0.15 0.10 0.06 0.06 0.05 0.06 0.06 0.05 0.04 0.03 0.02 0.04 0.05 0.06 0.05 0.05 0.05 0.04 0.07 0.09 0.11 0.10 0.10 0.11
0.01 0.00 0.01 0.01 0.01 0.02 0.02 0.02 0.02 0.02 0.03 0.04 0.06 0.07 0.08 0.10 0.12 0.12 0.13 0.14 0.10 0.08 0.08 0.09 0.09 0.08 0.06 0.05 0.04 0.03 0.04 0.04 0.05 0.04 0.07 0.05 0.04 0.04 0.06 0.10 0.10 0.09 0.13
0.02 0.02 0.03 0.02 0.02 0.02 0.02 0.02 0.01 0.02 0.03 0.04 0.06 0.08 0.09 0.10 0.14 0.15 0.15 0.13 0.10 0.08 0.08 0.08 0.07 0.05 0.04 0.03 0.03 0.05 0.06 0.05 0.05 0.04 0.06 0.05 0.05 0.04 0.04 0.07 0.11 0.11 0.11
0.04 0.07 0.06 0.04 0.02 0.01 0.02 0.02 0.02 0.03 0.03 0.04 0.06 0.07 0.09 0.11 0.13 0.13 0.15 0.16 0.13 0.09 0.07 0.05 0.04 0.03 0.04 0.03 0.03 0.05 0.05 0.04 0.05 0.06 0.06 0.04 0.04 0.04 0.06 0.07 0.08 0.08 0.09
0.04 0.05 0.06 0.06 0.03 0.02 0.01 0.01 0.02 0.03 0.04 0.04 0.05 0.07 0.09 0.08 0.10 0.12 0.12 0.15 0.13 0.08 0.06 0.04 0.04 0.03 0.03 0.02 0.03 0.03 0.02 0.03 0.03 0.04 0.05 0.05 0.05 0.04 0.05 0.07 0.06 0.05 0.05
0.02 0.03 0.03 0.02 0.02 0.03 0.02 0.01 0.01 0.02 0.03 0.04 0.04 0.05 0.06 0.08 0.09 0.11 0.12 0.09 0.08 0.07 0.06 0.05 0.05 0.03 0.02 0.02 0.03 0.03 0.02 0.02 0.02 0.02 0.03 0.05 0.06 0.05 0.05 0.06 0.05 0.05 0.04
0.02 0.02 0.02 0.02 0.03 0.03 0.04 0.03 0.02 0.01 0.02 0.02 0.03 0.04 0.04 0.05 0.06 0.07 0.06 0.05 0.04 0.04 0.05 0.05 0.04 0.02 0.02 0.02 0.02 0.02 0.01 0.01 0.02 0.01 0.02 0.04 0.07 0.06 0.07 0.06 0.06 0.07 0.05
0.02 0.03 0.02 0.03 0.03 0.04 0.04 0.03 0.03 0.02 0.02 0.03 0.03 0.03 0.03 0.03 0.03 0.03 0.05 0.03 0.02 0.02 0.03 0.04 0.03 0.02 0.02 0.01 0.01 0.02 0.02 0.02 0.02 0.02 0.03 0.04 0.06 0.07 0.07 0.07 0.09 0.10 0.08
0.03 0.03 0.04 0.04 0.04 0.03 0.04 0.04 0.03 0.02 0.02 0.03 0.03 0.03 0.03 0.03 0.04 0.05 0.07 0.05 0.04 0.02 0.02 0.03 0.03 0.03 0.02 0.02 0.02 0.03 0.03 0.03 0.03 0.02 0.03 0.05 0.05 0.06 0.07 0.08 0.10 0.09 0.06
0.04 0.06 0.05 0.05 0.04 0.03 0.03 0.02 0.02 0.02 0.01 0.01 0.02 0.03 0.04 0.04 0.04 0.04 0.04 0.03 0.03 0.03 0.03 0.04 0.04 0.04 0.03 0.03 0.03 0.03 0.04 0.05 0.05 0.03 0.03 0.03 0.04 0.04 0.05 0.05 0.06 0.06 0.04
MSLP
1011.61 1011.00 1010.53 1010.24 1010.09 1010.06 1010.07 1010.07 1010.01 1009.87 1009.67 1009.43 1009.22 1009.07 1009.01 1009.05 1009.16 1009.32 1009.47 1009.58 1009.64 1009.64 1009.62 1009.61 1009.64 1009.75 1009.94 1010.21 1010.53 1010.88 1011.21 1011.53 1011.81 1012.08 1012.35 1012.64 1012.95 1013.29 1013.64 1013.98 1014.31 1014.60 1014.87
1011.75 1011.20 1010.78 1010.51 1010.36 1010.31 1010.30 1010.28 1010.21 1010.08 1009.91 1009.74 1009.61 1009.56 1009.59 1009.71 1009.88 1010.06 1010.21 1010.29 1010.31 1010.26 1010.19 1010.13 1010.13 1010.21 1010.39 1010.64 1010.96 1011.30 1011.64 1011.97 1012.27 1012.55 1012.83 1013.11 1013.40 1013.70 1014.01 1014.32 1014.61 1014.89 1015.15
1011.81 1011.33 1010.96 1010.72 1010.59 1010.54 1010.53 1010.52 1010.46 1010.36 1010.24 1010.14 1010.09 1010.11 1010.22 1010.38 1010.58 1010.77 1010.90 1010.95 1010.92 1010.83 1010.72 1010.63 1010.61 1010.67 1010.84 1011.09 1011.41 1011.76 1012.11 1012.44 1012.75 1013.03 1013.29 1013.55 1013.81 1014.08 1014.35 1014.62 1014.89 1015.16 1015.43
1011.82 1011.40 1011.08 1010.88 1010.80 1010.78 1010.80 1010.81 1010.79 1010.73 1010.66 1010.61 1010.61 1010.68 1010.82 1011.01 1011.21 1011.39 1011.49 1011.51 1011.45 1011.34 1011.21 1011.12 1011.09 1011.16 1011.33 1011.59 1011.91 1012.26 1012.61 1012.94 1013.24 1013.50 1013.75 1013.97 1014.20 1014.42 1014.65 1014.90 1015.16 1015.43 1015.73
1011.83 1011.47 1011.20 1011.06 1011.02 1011.06 1011.12 1011.17 1011.19 1011.17 1011.13 1011.11 1011.14 1011.23 1011.37 1011.55 1011.73 1011.87 1011.95 1011.95 1011.88 1011.77 1011.66 1011.59 1011.59 1011.68 1011.87 1012.14 1012.46 1012.80 1013.13 1013.45 1013.72 1013.97 1014.18 1014.37 1014.56 1014.75 1014.95 1015.17 1015.43 1015.72 1016.05
1011.88 1011.58 1011.37 1011.28 1011.30 1011.39 1011.50 1011.59 1011.64 1011.64 1011.63 1011.62 1011.64 1011.71 1011.83 1011.97 1012.12 1012.23 1012.29 1012.29 1012.23 1012.15 1012.08 1012.06 1012.10 1012.23 1012.44 1012.71 1013.02 1013.35 1013.66 1013.94 1014.19 1014.40 1014.59 1014.75 1014.90 1015.06 1015.24 1015.46 1015.72 1016.03 1016.38
1012.06 1011.80 1011.64 1011.60 1011.66 1011.79 1011.93 1012.05 1012.11 1012.13 1012.11 1012.09 1012.09 1012.13 1012.21 1012.31 1012.42 1012.51 1012.55 1012.56 1012.53 1012.50 1012.48 1012.51 1012.61 1012.78 1013.00 1013.28 1013.57 1013.87 1014.15 1014.40 1014.62 1014.81 1014.97 1015.11 1015.25 1015.39 1015.56 1015.76 1016.02 1016.34 1016.72
1012.37 1012.14 1012.02 1012.02 1012.12 1012.27 1012.42 1012.54 1012.60 1012.60 1012.57 1012.53 1012.50 1012.51 1012.55 1012.62 1012.69 1012.76 1012.80 1012.82 1012.82 1012.83 1012.87 1012.95 1013.09 1013.29 1013.53 1013.79 1014.06 1014.33 1014.57 1014.80 1014.99 1015.16 1015.31 1015.45 1015.59 1015.73 1015.89 1016.09 1016.34 1016.65 1017.02
1012.80 1012.61 1012.52 1012.55 1012.65 1012.80 1012.93 1013.03 1013.07 1013.05 1012.99 1012.93 1012.89 1012.87 1012.89 1012.94 1013.00 1013.05 1013.09 1013.11 1013.14 1013.18 1013.25 1013.37 1013.53 1013.74 1013.97 1014.22 1014.47 1014.70 1014.92 1015.12 1015.30 1015.48 1015.64 1015.79 1015.94 1016.08 1016.25 1016.44 1016.67 1016.96 1017.31
1013.28 1013.14 1013.09 1013.13 1013.23 1013.35 1013.45 1013.51 1013.51 1013.46 1013.39 1013.32 1013.27 1013.26 1013.28 1013.32 1013.38 1013.42 1013.46 1013.48 1013.50 1013.55 1013.63 1013.75 1013.92 1014.12 1014.34 1014.56 1014.78 1014.99 1015.19 1015.38 1015.56 1015.75 1015.93 1016.11 1016.28 1016.45 1016.62 1016.80 1017.01 1017.27 1017.56
1013.75 1013.66 1013.65 1013.70 1013.79 1013.88 1013.94 1013.95 1013.91 1013.83 1013.75 1013.68 1013.65 1013.66 1013.71 1013.77 1013.83 1013.88 1013.90 1013.91 1013.91 1013.94 1014.00 1014.10 1014.24 1014.42 1014.61 1014.82 1015.01 1015.21 1015.39 1015.58 1015.78 1015.99 1016.20 1016.42 1016.62 1016.82 1017.00 1017.18 1017.36 1017.57 1017.82
1014.11 1014.09 1014.13 1014.20 1014.28 1014.34 1014.35 1014.32 1014.24 1014.15 1014.07 1014.03 1014.03 1014.08 1014.16 1014.26 1014.33 1014.38 1014.38 1014.36 1014.33 1014.32 1014.34 1014.40 1014.51 1014.65 1014.82 1015.00 1015.19 1015.37 1015.55 1015.75 1015.96 1016.20 1016.44 1016.69 1016.94 1017.16 1017.36 1017.54 1017.71 1017.88 1018.07
1014.32 1014.37 1014.46 1014.56 1014.64 1014.68 1014.67 1014.60 1014.50 1014.41 1014.34 1014.32 1014.37 1014.47 1014.60 1014.72 1014.82 1014.86 1014.85 1014.80 1014.73 1014.66 1014.63 1014.65 1014.72 1014.84 1014.98 1015.15 1015.33 1015.51 1015.69 1015.90 1016.12 1016.37 1016.64 1016.92 1017.20 1017.45 1017.67 1017.86 1018.02 1018.18 1018.34
1014.34 1014.47 1014.63 1014.76 1014.86 1014.89 1014.86 1014.78 1014.68 1014.59 1014.54 1014.56 1014.65 1014.79 1014.96 1015.11 1015.22 1015.27 1015.24 1015.16 1015.05 1014.95 1014.88 1014.86 1014.90 1014.99 1015.13 1015.29 1015.47 1015.65 1015.84 1016.04 1016.26 1016.52 1016.79 1017.09 1017.38 1017.66 1017.90 1018.11 1018.29 1018.44 1018.59
1014.20 1014.41 1014.61 1014.79 1014.91 1014.96 1014.94 1014.86 1014.77 1014.69 1014.67 1014.71 1014.83 1015.00 1015.19 1015.37 1015.49 1015.54 1015.51 1015.42 1015.29 1015.17 1015.07 1015.04 1015.07 1015.15 1015.29 1015.45 1015.63 1015.81 1015.99 1016.18 1016.39 1016.63 1016.89 1017.17 1017.47 1017.76 1018.03 1018.26 1018.47 1018.64 1018.80
1013.96 1014.21 1014.46 1014.67 1014.83 1014.90 1014.91 1014.86 1014.79 1014.74 1014.73 1014.79 1014.92 1015.10 1015.30 1015.47 1015.60 1015.66 1015.63 1015.55 1015.43 1015.32 1015.23 1015.20 1015.24 1015.34 1015.48 1015.65 1015.82 1016.00 1016.16 1016.33 1016.50 1016.70 1016.93 1017.18 1017.46 1017.75 1018.03 1018.29 1018.52 1018.73 1018.91
1013.68 1013.95 1014.23 1014.47 1014.66 1014.77 1014.82 1014.81 1014.78 1014.75 1014.76 1014.82 1014.94 1015.10 1015.28 1015.45 1015.57 1015.64 1015.64 1015.58 1015.50 1015.42 1015.37 1015.37 1015.43 1015.55 1015.70 1015.88 1016.05 1016.21 1016.35 1016.48 1016.60 1016.75 1016.92 1017.13 1017.37 1017.64 1017.92 1018.20 1018.46 1018.69 1018.90
1013.43 1013.70 1013.98 1014.24 1014.45 1014.62 1014.71 1014.76 1014.77 1014.77 1014.79 1014.83 1014.92 1015.04 1015.19 1015.33 1015.44 1015.53 1015.56 1015.56 1015.54 1015.52 1015.52 1015.57 1015.66 1015.79 1015.96 1016.13 1016.29 1016.43 1016.54 1016.62 1016.70 1016.78 1016.89 1017.04 1017.23 1017.47 1017.73 1018.01 1018.28 1018.53 1018.75
1013.25 1013.49 1013.75 1014.02 1014.26 1014.47 1014.63 1014.74 1014.80 1014.83 1014.85 1014.87 1014.91 1014.98 1015.07 1015.17 1015.28 1015.37 1015.45 1015.51 1015.56 1015.62 1015.69 1015.78 1015.90 1016.06 1016.22 1016.38 1016.53 1016.65 1016.72 1016.77 1016.80 1016.83 1016.88 1016.97 1017.11 1017.30 1017.52 1017.77 1018.04 1018.29 1018.51
1013.13 1013.34 1013.58 1013.84 1014.11 1014.37 1014.59 1014.76 1014.88 1014.94 1014.96 1014.95 1014.93 1014.94 1014.96 1015.02 1015.11 1015.22 1015.34 1015.47 1015.60 1015.73 1015.86 1016.00 1016.15 1016.31 1016.47 1016.61 1016.74 1016.84 1016.90 1016.92 1016.93 1016.92 1016.93 1016.97 1017.05 1017.18 1017.36 1017.57 1017.80 1018.03 1018.24
1013.04 1013.22 1013.44 1013.70 1014.00 1014.30 1014.59 1014.82 1014.99 1015.09 1015.10 1015.07 1015.00 1014.94 1014.90 1014.91 1014.98 1015.10 1015.26 1015.44 1015.64 1015.83 1016.02 1016.19 1016.36 1016.51 1016.66 1016.79 1016.90 1016.99 1017.04 1017.07 1017.07 1017.06 1017.05 1017.05 1017.10 1017.18 1017.31 1017.47 1017.65 1017.84 1018.01
1012.92 1013.08 1013.29 1013.56 1013.88 1014.23 1014.58 1014.88 1015.10 1015.23 1015.26 1015.20 1015.09 1014.96 1014.87 1014.84 1014.88 1015.00 1015.19 1015.42 1015.67 1015.91 1016.13 1016.32 1016.49 1016.63 1016.76 1016.88 1016.98 1017.07 1017.15 1017.20 1017.22 1017.23 1017.24 1017.24 1017.26 1017.31 1017.39 1017.51 1017.64 1017.77 1017.90
1012.70 1012.87 1013.08 1013.37 1013.72 1014.11 1014.51 1014.88 1015.16 1015.32 1015.36 1015.29 1015.15 1014.99 1014.85 1014.77 1014.79 1014.91 1015.11 1015.36 1015.64 1015.91 1016.14 1016.34 1016.50 1016.62 1016.74 1016.85 1016.96 1017.07 1017.18 1017.29 1017.37 1017.43 1017.47 1017.50 1017.53 1017.57 1017.62 1017.70 1017.78 1017.88 1017.96
1012.33 1012.53 1012.77 1013.07 1013.45 1013.89 1014.34 1014.76 1015.09 1015.30 1015.37 1015.30 1015.15 1014.96 1014.79 1014.69 1014.68 1014.78 1014.97 1015.23 1015.51 1015.78 1016.01 1016.20 1016.35 1016.46 1016.57 1016.68 1016.81 1016.96 1017.13 1017.30 1017.45 1017.59 1017.70 1017.78 1017.84 1017.89 1017.95 1018.01 1018.08 1018.14 1018.21
1011.79 1012.05 1012.32 1012.65 1013.06 1013.53 1014.02 1014.48 1014.87 1015.12 1015.23 1015.19 1015.05 1014.86 1014.67 1014.54 1014.51 1014.58 1014.75 1014.99 1015.25 1015.51 1015.73 1015.90 1016.03 1016.14 1016.24 1016.37 1016.53 1016.73 1016.96 1017.21 1017.44 1017.66 1017.84 1017.99 1018.11 1018.20 1018.28 1018.36 1018.44 1018.52 1018.59
1011.12 1011.43 1011.74 1012.10 1012.53 1013.02 1013.55 1014.05 1014.48 1014.78 1014.94 1014.94 1014.83 1014.66 1014.47 1014.33 1014.27 1014.31 1014.45 1014.64 1014.87 1015.08 1015.27 1015.43 1015.55 1015.66 1015.78 1015.93 1016.13 1016.38 1016.68 1016.99 1017.30 1017.60 1017.86 1018.08 1018.26 1018.41 1018.55 1018.69 1018.81 1018.93 1019.04
Thickness
5766 5771 5773 5774 5775 5774 5774 5774 5774 5774 5774 5774 5774 5773 5772 5772 5772 5770 5769 5768 5767 5766 5765 5763 5762 5760 5758 5757 5755 5754 5753 5751 5750 5749 5748 5746 5745 5744 5742 5741 5740 5739 5737
5768 5770 5771 5771 5772 5772 5772 5773 5773 5773 5773 5772 5772 5771 5770 5770 5769 5768 5767 5766 5765 5764 5763 5761 5760 5758 5756 5755 5754 5752 5751 5750 5748 5747 5746 5744 5743 5742 5740 5739 5738 5737 5735
5768 5769 5770 5770 5770 5771 5771 5771 5772 5771 5771 5770 5770 5769 5768 5768 5767 5766 5765 5764 5763 5762 5761 5759 5758 5756 5755 5753 5752 5751 5750 5748 5747 5746 5744 5743 5741 5740 5739 5738 5737 5735 5734
5768 5768 5769 5769 5769 5769 5770 5770 5770 5770 5769 5769 5768 5767 5766 5766 5765 5764 5763 5762 5761 5760 5759 5757 5756 5755 5753 5752 5751 5750 5748 5747 5745 5744 5743 5741 5740 5739 5738 5737 5735 5734 5733
5768 5768 5768 5768 5768 5768 5768 5769 5768 5768 5768 5767 5766 5766 5765 5764 5763 5762 5761 5760 5759 5758 5757 5756 5755 5753 5752 5751 5750 5749 5747 5745 5744 5743 5741 5740 5740 5739 5737 5736 5735 5734 5732
5767 5767 5767 5767 5767 5767 5767 5767 5767 5766 5766 5765 5765 5764 5763 5762 5762 5760 5759 5758 5757 5756 5755 5754 5753 5752 5752 5751 5749 5748 5746 5744 5743 5742 5740 5739 5738 5738 5737 5736 5734 5733 5732
5766 5766 5766 5766 5766 5766 5765 5765 5765 5765 5764 5763 5763 5762 5762 5761 5760 5759 5758 5757 5756 5755 5754 5753 5753 5752 5751 5750 5748 5747 5745 5743 5742 5741 5739 5739 5738 5737 5736 5735 5734 5732 5731
5766 5765 5765 5765 5764 5764 5764 5764 5763 5763 5762 5762 5761 5761 5760 5759 5759 5758 5757 5756 5755 5754 5753 5752 5751 5751 5750 5749 5747 5746 5745 5743 5742 5740 5739 5738 5737 5736 5735 5734 5733 5731 5730
5765 5764 5764 5764 5763 5763 5763 5762 5762 5761 5761 5760 5760 5759 5758 5758 5757 5756 5756 5755 5754 5753 5752 5751 5751 5750 5749 5748 5747 5746 5745 5743 5741 5740 5739 5738 5737 5736 5735 5734 5732 5731 5730
5765 5764 5763 5762 5762 5762 5761 5761 5761 5760 5760 5759 5758 5758 5757 5757 5756 5755 5755 5754 5753 5752 5752 5751 5750 5750 5749 5748 5747 5746 5744 5743 5741 5740 5739 5738 5737 5735 5734 5733 5732 5731 5730
5764 5763 5763 5762 5761 5761 5761 5760 5760 5760 5759 5758 5757 5756 5756 5755 5754 5754 5754 5753 5752 5752 5751 5750 5750 5749 5748 5747 5747 5746 5744 5742 5741 5740 5739 5738 5737 5735 5734 5733 5732 5731 5729
5762 5763 5763 5762 5761 5760 5760 5760 5759 5759 5758 5757 5756 5755 5754 5753 5753 5753 5753 5752 5752 5751 5751 5750 5750 5749 5748 5747 5747 5745 5744 5742 5741 5740 5739 5738 5737 5736 5735 5733 5731 5730 5729
5764 5764 5764 5763 5762 5761 5760 5759 5759 5758 5757 5756 5755 5754 5753 5752 5752 5752 5752 5751 5751 5750 5750 5750 5749 5749 5748 5747 5746 5745 5744 5743 5742 5741 5740 5739 5738 5736 5736 5734 5732 5730 5729
5766 5765 5765 5764 5762 5761 5760 5760 5759 5758 5757 5756 5755 5754 5753 5752 5751 5750 5750 5750 5750 5750 5749 5749 5749 5748 5748 5748 5747 5746 5745 5744 5742 5741 5740 5739 5738 5737 5736 5735 5734 5732 5730
5768 5768 5767 5766 5764 5763 5761 5760 5760 5759 5758 5757 5755 5754 5753 5752 5750 5750 5749 5750 5749 5749 5749 5748 5748 5748 5748 5747 5746 5746 5745 5744 5743 5742 5741 5740 5739 5738 5737 5736 5734 5733 5731
5771 5770 5770 5768 5766 5764 5762 5761 5760 5760 5758 5757 5756 5755 5754 5753 5751 5750 5749 5749 5748 5748 5748 5747 5747 5747 5746 5746 5746 5745 5745 5744 5743 5742 5742 5741 5740 5739 5737 5736 5735 5734 5733
5775 5774 5772 5770 5768 5766 5764 5763 5762 5760 5759 5758 5757 5757 5755 5754 5752 5751 5749 5749 5748 5748 5747 5746 5746 5745 5745 5745 5745 5745 5744 5743 5743 5742 5741 5741 5740 5739 5737 5736 5735 5734 5733
5779 5776 5774 5774 5770 5768 5766 5765 5763 5762 5761 5759 5758 5757 5756 5755 5753 5751 5750 5749 5748 5748 5747 5746 5744 5743 5743 5743 5743 5743 5743 5742 5742 5742 5741 5740 5739 5738 5737 5736 5735 5734 5733
5783 5779 5776 5775 5772 5770 5768 5766 5764 5763 5761 5760 5758 5757 5756 5755 5754 5752 5751 5750 5749 5748 5747 5746 5744 5743 5741 5741 5741 5742 5742 5741 5741 5741 5740 5739 5738 5737 5736 5735 5734 5733 5732
5786 5782 5779 5776 5774 5772 5769 5767 5764 5763 5761 5760 5759 5758 5756 5755 5754 5753 5751 5750 5749 5748 5746 5745 5743 5742 5741 5741 5741 5740 5740 5740 5740 5740 5739 5738 5737 5736 5735 5734 5733 5732 5731
5787 5783 5780 5777 5775 5772 5769 5765 5763 5761 5761 5760 5759 5758 5757 5755 5754 5753 5751 5750 5749 5748 5746 5745 5743 5741 5740 5740 5738 5736 5737 5738 5738 5738 5737 5737 5736 5735 5734 5732 5731 5731 5730
5789 5786 5782 5779 5777 5774 5772 5769 5766 5764 5762 5761 5759 5758 5757 5755 5754 5754 5752 5750 5749 5748 5746 5745 5743 5740 5739 5739 5736 5731 5729 5731 5734 5737 5736 5735 5735 5733 5732 5731 5730 5729 5729
5791 5789 5786 5782 5779 5776 5773 5770 5768 5764 5762 5760 5758 5757 5757 5756 5754 5753 5752 5750 5749 5748 5746 5745 5744 5741 5738 5738 5738 5733 5727 5724 5727 5731 5733 5733 5732 5731 5731 5730 5729 5728 5727
5795 5793 5790 5785 5781 5777 5774 5771 5767 5763 5759 5759 5758 5757 5756 5755 5754 5752 5751 5750 5748 5747 5746 5745 5744 5742 5740 5737 5737 5736 5735 5732 5726 5724 5727 5729 5729 5728 5728 5728 5726 5725 5725
5799 5795 5792 5787 5783 5779 5776 5773 5769 5765 5762 5760 5759 5756 5755 5754 5753 5751 5750 5749 5747 5746 5745 5744 5744 5742 5741 5738 5736 5735 5733 5731 5729 5724 5720 5722 5724 5725 5725 5724 5723 5722 5722
5800 5797 5793 5788 5784 5781 5777 5774 5770 5766 5763 5760 5758 5755 5754 5753 5751 5750 5749 5748 5746 5745 5744 5743 5743 5742 5740 5739 5737 5735 5733 5730 5727 5724 5720 5719 5718 5719 5720 5720 5719 5718 5718